Location: Malvern Link
(52.1333°N, 2.3000°W)
Time: 10:26:59
(UTC+00:00)

AO-92 - Pass Details

Date: 08 July 2022
Orbit: 470 x 481 km, 97.4° (Epoch: 07 August)

Event Time Altitude Azimuth Distance (km) Brightness Sun altitude
Exits shadow 21:17:22 - 133° (SE) 1,838 ? -6.1°
Reaches altitude 10° 21:17:50 10° 130° (SE) 1,660 ? -6.1°
Maximum altitude 21:21:01 31° 67° (ENE) 873 ? -6.4°
Drops below altitude 10° 21:24:14 10° 4° (N) 1,678 ? -6.7°
Sets 21:26:27 0° 354° (N) 2,564 ? -7.0°
